Location: Barcelona
(41.3830°N, 2.1830°E)
Time: 13:12:00
(UTC+02:00)

ISS - Pass Details

Date: 30 May 2020
Orbit: 417 x 419 km, 51.6° (Epoch: 31 May)

Event Time Altitude Azimuth Distance (km) Brightness Sun altitude
Rises 23:10:04 0° 305° (NW) 2,366 1.5 -16.8°
Reaches altitude 10° 23:12:10 10° 306° (NW) 1,500 0.2 -17.0°
Maximum altitude 23:15:32 88° 39° (NE) 423 -3.9 -17.4°
Enters shadow 23:16:15 53° 123° (ESE) 521 -3.7 -17.5°
